Tracking 19909 objects as of 23-Oct-2019
HD Live streaming from Space Station
objects crossing your sky now

AMOS 17

Track AMOS 17 now!


NORAD ID: 44479
Int'l Code: 2019-050A
Perigee: 35,783.9 km
Apogee: 35,801.5 km
Inclination: 0.0 °
Period: 1,436.0 minutes
Semi major axis: 42163 km
RCS: Unknown
Launch date: August 6, 2019
Source: Israel (ISRA)
Launch site: AIR FORCE EASTERN TEST RANGE (AFETR)
aabbcc
Your satellite tracking list
Your tracking list is empty




NASA's NSSDC Master Catalog

Two Line Element Set (TLE):
1 44479U 19050A   19295.91954590 +.00000084 +00000-0 +00000-0 0  9993
2 44479 000.0340 281.4582 0002095 278.9545 175.5483 01.00275504000853
Source of the keplerian elements: AFSPC